This demonstration page uses our WeatherBlox Daily Observations layout. Learn more.

Left ArrowRight Arrow

34.16533, -84.80231

Hourly Observations for July 21, 2020

Temp ( °F °C ) Dew Point ( °F °C ) Humidity (%) Winds ( mph kmh ) Pressure ( in mb ) Visibility ( mi km ) Precip ( " mm )
12:53 am 00:53 Clear 77 25 70 21.1 79 79 Calm 30.01 1016 10 16 0.00 0.00
1:53 am 01:53 Mostly Clear 76 24.4 69 20.6 79 79 Calm 30.00 1016 10 16 0.00 0.00
2:53 am 02:53 Mostly Clear 76 24.4 68 20 77 77 Calm 29.99 1016 10 16 0.00 0.00
3:53 am 03:53 Clear 73 22.8 68 20 84 84 Calm 29.97 1015 10 16 0.00 0.00
4:53 am 04:53 Clear 75 23.9 69 20.6 82 82 Calm 29.97 1015 10 16 0.00 0.00
5:53 am 05:53 Clear 74 23.3 69 20.6 85 85 Calm 30.00 1016 10 16 0.00 0.00
6:53 am 06:53 Sunny 72 22.2 68 20 87 87 Calm 30.02 1017 9 14 0.00 0.00
7:53 am 07:53 Sunny 76 24.4 70 21.1 82 82 Calm 30.07 1018 10 16 0.00 0.00
8:53 am 08:53 Sunny 82 27.8 72 22.2 72 72 Calm 30.08 1019 10 16 0.00 0.00
9:53 am 09:53 Sunny 85 29.4 72 22.2 65 65 Calm 30.09 1019 10 16 0.00 0.00
10:53 am 10:53 Sunny 88 31.1 72 22.2 59 59 VRB 3 6 30.09 1019 10 16 0.00 0.00
11:53 am 11:53 Mostly Sunny 90 32.2 73 22.8 58 58 Calm 30.08 1019 10 16 0.00 0.00
12:53 pm 12:53 Sunny 93 33.9 72 22.2 50 50 VRB 5 7 30.07 1018 10 16 0.00 0.00
1:53 pm 13:53 Mostly Sunny 95 35 73 22.8 49 49 S 10 17 30.04 1017 10 16 0.00 0.00
2:53 pm 14:53 Mostly Sunny 96 35.6 69 20.6 41 41 S 5 7 30.01 1016 10 16 0.00 0.00
3:17 pm 15:17 Partly Cloudy with Nearby Thunderstorms 96 35.6 70 21.1 43 43 VRB 3 6 29.99 1016 10 16 0.00 0.00
3:40 pm 15:40 Sunny 95 35 68 20 41 41 S 7 11 29.98 1015 10 16 0.00 0.00
3:53 pm 15:53 Sunny 95 35 68 20 41 41 Calm 30.00 1016 10 16 0.00 0.00
4:16 pm 16:16 Partly Cloudy with Nearby Thunderstorms 93 33.9 70 21.1 47 47 N 9 15 30.00 1016 10 16 0.00 0.00
5:01 pm 17:01 Partly Cloudy with Nearby Thunderstorms 88 31.1 68 20 52 52 N 6 9 29.99 1016 10 16 0.00 0.00
5:32 pm 17:32 Mostly Cloudy with Thunderstorms 82 27.8 71 21.7 69 69 SSW 5 7 30.06 1018 10 16 0.00 0.00
5:42 pm 17:42 Cloudy with Thunderstorms 80 26.7 72 22.2 76 76 VRB 5 7 30.07 1018 2 3 0.10 2.54
5:59 pm 17:59 Partly Cloudy with Thunderstorms 76 24.4 71 21.7 85 85 VRB 5 7 30.10 1019 2 3 0.32 8.13
6:19 pm 18:19 Partly Cloudy with Thunderstorms 75 23.9 72 22.2 90 90 VRB 3 6 30.08 1019 1 2 0.42 10.67
6:29 pm 18:29 Cloudy with Thunderstorms 75 23.9 72 22.2 90 90 Calm 30.07 1018 3 4 0.45 11.43
6:38 pm 18:38 Mostly Cloudy with Thunderstorms 76 24.4 73 22.8 91 91 NE 5 7 30.06 1018 5 8 0.45 11.43
6:47 pm 18:47 Partly Cloudy with Light Rain 75 24 72 22 89 89 NNE 7 11 30.06 1018 7 11 0.46 11.68
6:48 pm 18:48 Partly Cloudy with Light Rain 76 24.4 72 22.2 88 88 NNE 7 11 30.05 1018 7 11 0.46 11.68
7:16 pm 19:16 Partly Cloudy with Nearby Thunderstorms 76 24.4 73 22.8 91 91 Calm 30.06 1018 7 11 0.00 0.00
7:28 pm 19:28 Partly Cloudy with Thunderstorms 76 24.4 73 22.8 91 91 E 3 6 30.06 1018 7 11 0.01 0.25
7:43 pm 19:43 Partly Cloudy with Light Rain 75 23.9 72 22.2 90 90 E 5 7 30.07 1018 7 11 0.03 0.76
7:53 pm 19:53 Partly Cloudy with Light Rain 75 23.9 72 22.2 90 90 ESE 3 6 30.07 1018 8 13 0.04 1.02
8:53 pm 20:53 Mostly Cloudy 75 23.9 72 22.2 90 90 Calm 30.05 1018 9 14 0.03 0.76
9:53 pm 21:53 Mostly Cloudy 75 23.9 72 22.2 90 90 ENE 3 6 30.04 1017 10 16 0.00 0.00
10:53 pm 22:53 Clear 75 23.9 72 22.2 90 90 Calm 30.08 1019 9 14 0.00 0.00
11:53 pm 23:53 Partly Cloudy 75 23.9 72 22.2 90 90 Calm 30.09 1019 8 13 0.00 0.00

Powered by AerisWeather